Weather in Altieylul

Turkey     39°33′19″N   27°52′05″E
temp.,
°C
wind,
m/s
gust,
m/s
humid.,
%
clouds,
%
prec.,
mm/h
press.,
hPa
HPBL,
m
13 april, tue
tue1300:00+6ene11805 0.0 102210
03:00+5sw00815 0.0 102110
06:00+4ese11821 0.0 102110
09:00+9e11665 0.0 1021186
12:00+16ssw124156 0.0 1019858
15:00+18sw3443100 0.0 10171393
18:00+15sw4861100 0.0 1016285
21:00+12ssw3371100 0.2 101768
14 april, wed
wed1400:00+10ssw227990 0.0 101724
03:00+9sw33846 0.0 101638
06:00+8ssw33823 0.0 101629
09:00+13ssw35625 0.0 1016397
12:00+17sw69455 0.0 10151401
15:00+19sw912432 0.0 10132343
18:00+17wsw8115533 0.0 10131509
21:00+11sw477623 0.0 1016142
15 april, thu
thu1500:00+10sw3387100 0.0 101632
03:00+9sw1186100 0.0 101610
06:00+8ese0086100 0.0 101610
09:00+12ene11705 0.0 1016276
12:00+18ssw254919 0.0 10151752
15:00+19sw674530 0.1 10142213
18:00+17wsw575815 0.1 10141246
21:00+11nnw11869 0.1 101613
16 april, fri
fri1600:00+9nne11925 0.0 101710
03:00+7ene119435 0.0 101710
06:00+6nne229870 0.0 101825
09:00+8ne239096 0.0 1019341
12:00+13nne326985 0.0 1018828
15:00+16nne325594 0.0 10171317
18:00+14nne5468100 0.0 1017544
21:00+10nne2282100 0.0 101867
17 april, sat
sat1700:00+10n2381100 0.0 1017154
03:00+9nnw1187100 0.6 101634
06:00+8n1297100 4.9 1017125
09:00+10ese1294100 7.1 1016143
12:00+14ene2382100 0.1 1013449
15:00+19ese1468100 0.1 1010730
18:00+22e1458100 0.0 1008486
21:00+14ene1190100 0.0 100915